Temp
-3 -3 -4 -4 -4 -4 -6 -5 -6 -3 -5 -3 -5 -5 -6 -7 -8 -8 -9 -9 -10 -10 -10 -11 -11 -11 -11 -11 -11 -11 -10 -10 -10 -10 -10 -10 -10 -9 -9 -9 -9 -8 -8 -8
-4 -3 -4 -5 -2 -3 -4 -4 -5 -4 -4 -4 -5 -6 -7 -8 -9 -9 -10 -10 -10 -11 -11 -11 -11 -11 -11 -11 -11 -11 -10 -10 -10 -10 -10 -10 -10 -9 -9 -9 -8 -8 -8 -7
-4 -4 -5 -5 -0 -0 -2 -3 -4 -4 -5 -6 -7 -8 -9 -9 -10 -10 -11 -11 -11 -11 -11 -12 -12 -11 -11 -11 -11 -11 -11 -11 -10 -11 -10 -10 -10 -10 -9 -9 -9 -8 -8 -8
-4 -5 -5 -2 -2 -2 -4 -4 -4 -5 -6 -7 -8 -9 -10 -10 -11 -11 -11 -11 -11 -12 -12 -12 -12 -12 -12 -12 -12 -12 -11 -11 -11 -11 -11 -11 -10 -10 -10 -10 -9 -9 -9 -9
-5 -7 -4 -2 -2 -3 -4 -5 -5 -6 -7 -8 -9 -10 -10 -10 -11 -11 -11 -12 -12 -12 -12 -12 -12 -12 -12 -12 -12 -12 -12 -11 -11 -11 -11 -11 -11 -11 -11 -10 -11 -11 -10 -10
-6 -7 -3 -3 -4 -5 -6 -6 -6 -8 -9 -10 -10 -11 -12 -11 -12 -12 -12 -13 -13 -13 -12 -12 -12 -12 -13 -13 -12 -12 -12 -12 -12 -12 -12 -11 -11 -11 -11 -11 -11 -11 -11 -11
-7 -8 -5 -4 -5 -6 -7 -6 -8 -9 -9 -10 -11 -11 -11 -12 -12 -13 -13 -13 -13 -13 -12 -12 -12 -12 -13 -13 -13 -12 -12 -12 -12 -12 -12 -12 -12 -12 -12 -12 -12 -12 -11 -11
-7 -8 -7 -5 -6 -7 -7 -8 -8 -9 -10 -10 -11 -11 -12 -12 -13 -13 -13 -13 -13 -13 -13 -13 -13 -13 -13 -13 -13 -13 -13 -13 -13 -12 -12 -12 -12 -13 -13 -13 -12 -12 -11 -11
-5 -4 -4 -6 -7 -7 -8 -8 -9 -10 -10 -11 -11 -12 -12 -13 -13 -13 -14 -14 -13 -13 -13 -13 -14 -14 -14 -13 -13 -13 -13 -13 -13 -13 -13 -13 -13 -13 -12 -12 -12 -11 -11 -10
-6 -5 -6 -7 -7 -8 -9 -9 -10 -11 -11 -11 -12 -12 -13 -13 -14 -14 -14 -14 -14 -13 -14 -14 -14 -14 -14 -14 -14 -14 -13 -13 -13 -13 -12 -13 -13 -13 -12 -12 -12 -11 -11 -10
-6 -6 -7 -7 -8 -9 -10 -10 -11 -11 -11 -12 -12 -13 -13 -14 -14 -14 -14 -14 -14 -14 -15 -15 -15 -15 -15 -15 -14 -14 -14 -13 -13 -13 -12 -12 -12 -12 -12 -12 -12 -11 -10 -10
-7 -7 -8 -9 -9 -10 -10 -11 -11 -12 -12 -12 -13 -13 -13 -14 -14 -14 -14 -14 -15 -16 -16 -16 -16 -15 -15 -15 -15 -15 -14 -13 -13 -12 -12 -12 -12 -12 -12 -12 -12 -11 -11 -10
-7 -8 -9 -9 -10 -10 -11 -11 -12 -12 -13 -13 -13 -14 -14 -14 -14 -15 -15 -16 -16 -16 -16 -16 -16 -16 -16 -16 -15 -15 -14 -14 -13 -13 -12 -12 -12 -12 -11 -12 -12 -11 -11 -10
-7 -8 -9 -9 -10 -11 -11 -12 -12 -12 -13 -13 -14 -14 -14 -15 -15 -15 -16 -16 -16 -16 -16 -16 -16 -16 -16 -16 -16 -15 -15 -14 -13 -13 -13 -12 -12 -12 -12 -11 -11 -11 -11 -10
-8 -9 -10 -10 -11 -11 -12 -12 -12 -13 -13 -14 -14 -14 -15 -15 -15 -16 -16 -16 -17 -17 -17 -17 -16 -16 -16 -16 -16 -15 -15 -14 -14 -13 -13 -13 -12 -12 -12 -12 -11 -11 -11 -10
-9 -9 -10 -10 -11 -11 -12 -12 -13 -13 -14 -14 -15 -15 -15 -15 -16 -16 -17 -17 -17 -17 -17 -17 -16 -17 -16 -16 -16 -15 -15 -15 -14 -13 -13 -13 -12 -12 -12 -12 -11 -11 -11 -11
-9 -9 -10 -11 -11 -12 -12 -13 -14 -14 -14 -15 -15 -16 -16 -16 -16 -17 -17 -17 -17 -17 -17 -17 -17 -17 -17 -17 -16 -15 -15 -15 -14 -14 -13 -13 -13 -12 -12 -12 -11 -11 -11 -11
-9 -10 -11 -11 -12 -12 -13 -13 -14 -14 -15 -15 -16 -16 -16 -16 -16 -17 -17 -17 -17 -18 -18 -18 -18 -17 -17 -17 -16 -16 -15 -15 -14 -13 -13 -13 -13 -13 -12 -12 -11 -11 -11 -11
-10 -11 -12 -12 -13 -13 -13 -14 -15 -15 -15 -16 -16 -16 -16 -17 -17 -17 -17 -17 -17 -18 -18 -18 -18 -18 -17 -17 -16 -16 -15 -14 -14 -14 -13 -13 -13 -12 -12 -12 -11 -12 -12 -12
-11 -12 -12 -13 -13 -14 -14 -15 -15 -15 -16 -16 -16 -17 -17 -17 -17 -17 -18 -18 -18 -18 -18 -18 -18 -18 -17 -17 -16 -16 -15 -14 -14 -14 -13 -13 -13 -12 -12 -12 -12 -12 -12 -12
-12 -13 -13 -13 -14 -15 -15 -16 -16 -16 -16 -16 -17 -17 -17 -17 -18 -18 -18 -18 -18 -18 -18 -18 -18 -18 -17 -17 -16 -16 -15 -15 -14 -14 -13 -13 -13 -13 -13 -12 -12 -12 -12 -12
-13 -13 -14 -14 -15 -16 -16 -16 -16 -16 -17 -17 -17 -17 -17 -18 -18 -18 -18 -18 -18 -18 -18 -18 -18 -18 -18 -17 -17 -16 -16 -15 -15 -14 -14 -13 -13 -13 -13 -13 -13 -13 -13 -12
-14 -14 -15 -15 -16 -16 -16 -17 -17 -17 -17 -17 -18 -18 -18 -18 -18 -18 -18 -18 -18 -18 -18 -18 -18 -18 -18 -18 -17 -16 -16 -15 -15 -15 -14 -14 -14 -14 -14 -13 -13 -13 -13 -13
-15 -15 -16 -16 -17 -17 -17 -17 -17 -17 -17 -18 -18 -18 -18 -19 -18 -18 -18 -18 -19 -19 -19 -19 -19 -19 -18 -18 -17 -17 -16 -16 -16 -15 -15 -15 -15 -14 -14 -14 -14 -14 -13 -13
-15 -16 -17 -17 -17 -17 -17 -17 -17 -18 -18 -18 -18 -18 -18 -18 -18 -18 -18 -18 -19 -19 -19 -19 -19 -19 -18 -18 -18 -17 -17 -16 -16 -16 -15 -15 -15 -15 -15 -14 -14 -14 -14 -14
-16 -17 -17 -17 -18 -17 -17 -18 -18 -18 -18 -18 -19 -19 -19 -19 -19 -19 -19 -19 -19 -19 -19 -19 -19 -19 -19 -18 -18 -18 -17 -17 -16 -16 -16 -16 -15 -15 -15 -15 -14 -14 -14 -14
-17 -18 -18 -18 -18 -18 -18 -18 -19 -19 -19 -19 -19 -19 -19 -19 -19 -19 -19 -19 -19 -19 -19 -19 -19 -19 -19 -19 -19 -18 -18 -17 -17 -17 -16 -16 -16 -16 -15 -15 -15 -15 -15 -15
Height
3135 3133 3131 3125 3121 3122 3119 3113 3111 3099 3097 3096 3092 3086 3081 3076 3070 3065 3060 3055 3049 3042 3035 3028 3021 3015 3009 3003 2996 2989 2984 2979 2973 2967 2963 2959 2956 2952 2949 2946 2944 2941 2939 2938
3123 3124 3120 3114 3109 3108 3107 3104 3098 3095 3089 3090 3086 3081 3076 3070 3064 3059 3053 3047 3040 3034 3026 3020 3013 3007 3001 2995 2988 2981 2976 2971 2965 2959 2954 2950 2947 2943 2939 2936 2932 2930 2928 2926
3117 3116 3113 3105 3097 3099 3099 3097 3095 3091 3088 3083 3079 3075 3069 3064 3058 3051 3044 3038 3032 3026 3019 3012 3005 2999 2993 2986 2980 2974 2969 2963 2957 2951 2947 2943 2938 2934 2929 2925 2921 2918 2915 2913
3114 3114 3109 3097 3095 3093 3092 3091 3089 3085 3080 3077 3073 3069 3062 3056 3050 3044 3038 3030 3024 3018 3012 3004 2998 2992 2986 2980 2973 2966 2961 2955 2948 2942 2938 2934 2930 2924 2920 2915 2911 2907 2904 2902
3113 3106 3096 3093 3089 3088 3086 3084 3082 3078 3075 3071 3066 3060 3055 3050 3044 3036 3029 3023 3017 3011 3004 2996 2988 2983 2977 2973 2967 2960 2954 2947 2941 2934 2930 2925 2920 2915 2911 2906 2902 2898 2895 2894
3107 3105 3094 3086 3086 3084 3081 3076 3073 3072 3068 3064 3058 3051 3047 3041 3034 3028 3023 3016 3010 3007 2999 2991 2982 2977 2971 2966 2959 2953 2947 2940 2934 2928 2922 2917 2912 2907 2902 2898 2894 2891 2889 2887
3102 3099 3088 3083 3080 3079 3079 3074 3066 3063 3059 3055 3050 3045 3038 3031 3026 3020 3015 3010 3004 2999 2992 2984 2976 2969 2964 2959 2953 2946 2940 2933 2927 2922 2916 2911 2906 2900 2895 2891 2888 2886 2884 2882
3094 3093 3084 3079 3077 3077 3071 3064 3060 3055 3051 3047 3042 3037 3032 3025 3020 3014 3009 3005 2999 2992 2987 2979 2971 2963 2957 2952 2945 2938 2932 2926 2920 2916 2911 2905 2900 2895 2890 2886 2884 2882 2880 2878
3087 3082 3077 3073 3071 3066 3062 3057 3053 3048 3044 3039 3034 3029 3024 3019 3013 3009 3002 2998 2992 2984 2978 2972 2964 2956 2949 2944 2937 2931 2925 2919 2914 2910 2905 2900 2896 2891 2886 2883 2880 2878 2875 2872
3074 3073 3070 3066 3062 3057 3053 3049 3045 3041 3037 3031 3027 3021 3017 3012 3008 3003 2997 2991 2984 2976 2971 2965 2958 2951 2943 2937 2930 2924 2918 2913 2908 2904 2900 2896 2892 2886 2882 2879 2876 2873 2870 2866
3063 3064 3059 3057 3053 3050 3046 3042 3038 3034 3030 3025 3019 3015 3011 3007 3000 2995 2989 2983 2977 2968 2961 2956 2950 2943 2936 2930 2924 2917 2912 2906 2902 2898 2894 2891 2887 2882 2878 2875 2872 2868 2864 2860
3055 3054 3052 3048 3045 3042 3038 3035 3031 3027 3023 3017 3013 3008 3004 3001 2994 2987 2980 2974 2968 2962 2955 2950 2944 2937 2929 2923 2917 2910 2905 2900 2895 2892 2889 2886 2882 2880 2875 2871 2869 2865 2861 2857
3049 3046 3043 3040 3037 3035 3031 3028 3024 3020 3016 3011 3006 3002 2998 2994 2987 2979 2973 2967 2961 2954 2948 2943 2937 2930 2923 2917 2911 2905 2899 2894 2889 2887 2884 2881 2877 2874 2871 2870 2866 2862 2857 2855
3039 3037 3035 3032 3030 3027 3024 3020 3017 3014 3011 3007 3002 2996 2990 2985 2980 2972 2966 2961 2955 2949 2943 2937 2931 2924 2918 2911 2905 2900 2894 2888 2883 2881 2879 2876 2873 2870 2867 2864 2863 2860 2856 2853
3032 3030 3028 3025 3023 3021 3017 3014 3011 3008 3005 3001 2994 2989 2984 2979 2973 2968 2962 2956 2951 2944 2937 2932 2925 2919 2912 2906 2899 2894 2888 2883 2879 2877 2875 2872 2869 2867 2864 2862 2860 2857 2854 2853
3025 3023 3022 3020 3018 3015 3012 3009 3006 3001 2998 2995 2989 2984 2979 2973 2968 2963 2957 2951 2945 2939 2933 2927 2920 2913 2906 2900 2894 2888 2883 2878 2874 2872 2871 2869 2866 2864 2862 2860 2858 2856 2854 2854
3019 3019 3016 3015 3013 3010 3006 3005 3000 2995 2991 2988 2984 2979 2974 2970 2965 2959 2953 2947 2941 2934 2928 2921 2914 2907 2901 2894 2888 2882 2877 2873 2871 2869 2867 2866 2863 2861 2860 2858 2857 2855 2854 2854
3016 3015 3012 3010 3008 3004 3001 3000 2995 2990 2986 2983 2979 2974 2969 2964 2960 2955 2949 2943 2938 2931 2924 2918 2910 2904 2897 2890 2884 2878 2873 2869 2868 2866 2865 2863 2861 2859 2857 2856 2855 2854 2854 2854
3011 3010 3007 3006 3003 2999 2996 2994 2989 2984 2981 2978 2975 2970 2965 2959 2955 2950 2944 2939 2933 2927 2922 2915 2908 2900 2893 2887 2880 2874 2870 2867 2866 2864 2862 2861 2859 2857 2855 2854 2853 2853 2853 2855
3006 3005 3002 3001 2997 2994 2991 2990 2985 2980 2977 2974 2970 2965 2960 2955 2951 2947 2941 2936 2929 2922 2916 2910 2904 2897 2891 2884 2877 2872 2868 2866 2864 2862 2860 2859 2857 2855 2854 2853 2852 2852 2853 2855
3001 2998 2997 2996 2993 2990 2987 2984 2981 2977 2973 2970 2965 2961 2957 2953 2948 2943 2939 2934 2928 2922 2916 2909 2901 2895 2888 2881 2875 2871 2867 2865 2863 2861 2859 2857 2856 2854 2853 2852 2852 2852 2853 2855
2996 2994 2993 2990 2987 2985 2983 2979 2977 2973 2970 2966 2961 2957 2953 2950 2946 2941 2935 2931 2925 2920 2914 2907 2901 2895 2888 2882 2876 2871 2867 2865 2862 2860 2858 2857 2855 2853 2852 2851 2851 2852 2854 2856
2990 2989 2987 2985 2983 2981 2979 2975 2972 2969 2966 2962 2959 2955 2950 2946 2943 2939 2936 2930 2924 2918 2912 2907 2901 2895 2889 2883 2877 2872 2869 2865 2863 2860 2858 2856 2855 2853 2852 2852 2852 2853 2855 2858
2985 2984 2982 2981 2979 2976 2973 2971 2968 2965 2963 2959 2956 2952 2949 2944 2939 2936 2932 2927 2922 2917 2912 2907 2901 2896 2891 2885 2879 2874 2870 2867 2864 2862 2859 2857 2856 2854 2853 2853 2853 2855 2857 2859
2980 2979 2977 2976 2974 2971 2969 2967 2964 2961 2959 2956 2952 2949 2945 2942 2939 2936 2931 2926 2922 2917 2912 2908 2903 2898 2894 2888 2882 2877 2873 2869 2867 2864 2861 2859 2857 2856 2855 2855 2856 2857 2859 2861
2975 2974 2973 2972 2969 2967 2966 2964 2961 2959 2956 2953 2950 2947 2944 2941 2938 2934 2930 2927 2922 2918 2913 2909 2905 2900 2896 2891 2886 2881 2877 2874 2870 2868 2865 2862 2860 2859 2858 2858 2859 2860 2862 2864
2971 2970 2969 2967 2965 2964 2963 2961 2959 2957 2954 2951 2949 2946 2944 2941 2938 2935 2931 2928 2924 2920 2915 2911 2907 2903 2898 2894 2890 2886 2882 2878 2875 2872 2870 2867 2865 2864 2863 2863 2864 2865 2866 2867
Wind_Speed
26 25 28 34 37 32 28 35 24 32 29 33 30 29 31 32 34 35 37 38 45 45 44 43 40 39 39 40 38 36 35 34 35 34 32 29 28 29 30 30 31 33 33 32
31 29 25 32 35 33 31 31 35 33 34 29 28 29 29 33 36 37 39 46 43 41 39 37 39 41 40 39 36 35 34 35 36 34 30 28 29 30 32 33 34 34 35 35
18 20 23 27 3 9 17 19 22 24 27 27 26 28 33 34 35 40 42 43 40 37 37 38 41 42 40 39 37 34 34 35 35 33 29 29 30 32 34 35 35 35 36 36
20 21 5 8 10 24 22 12 21 24 26 22 26 33 34 34 41 39 41 38 35 35 36 38 41 39 38 38 37 36 36 35 35 33 30 30 32 33 32 33 34 34 32 31
7 8 24 25 18 13 16 24 28 16 20 24 34 37 38 35 35 37 37 36 36 36 38 40 41 40 40 38 36 35 36 35 33 32 32 33 34 31 30 32 29 26 24 23
16 7 6 17 17 18 18 26 13 22 28 32 37 38 30 37 37 35 33 34 35 35 37 38 39 39 38 38 37 35 35 34 32 31 32 34 32 30 29 27 24 21 18 19
21 13 16 23 19 16 12 23 30 37 37 38 37 35 37 37 34 33 34 34 35 36 37 38 39 39 38 38 36 34 35 34 30 29 30 32 30 28 25 22 18 16 15 15
12 10 12 5 20 22 28 37 39 40 38 37 37 36 36 34 33 33 32 32 34 36 34 34 35 38 37 37 36 35 34 33 29 27 27 27 26 24 21 18 16 14 16 15
16 17 26 35 31 35 36 38 38 37 36 37 36 36 35 34 32 30 32 35 38 38 37 33 34 36 38 37 37 34 33 32 28 25 25 24 24 22 19 16 15 15 18 18
29 32 31 30 32 33 35 34 35 36 35 35 34 34 33 32 31 32 35 38 40 39 36 33 32 33 36 36 36 34 33 31 27 24 22 22 21 21 20 17 15 19 18 18
35 30 29 29 29 30 32 33 32 31 32 33 32 31 31 30 32 35 38 40 39 38 37 35 33 33 34 35 36 33 32 31 26 22 21 21 19 20 19 16 17 22 21 15
33 29 30 31 30 30 30 28 27 29 30 30 30 29 29 32 36 39 41 40 37 34 34 33 32 33 34 35 35 34 32 30 25 21 20 21 19 13 16 19 16 20 19 13
28 30 29 27 26 25 24 26 27 27 27 26 27 30 33 36 37 38 37 36 34 34 34 34 33 34 34 35 35 33 32 30 24 20 19 19 18 17 13 10 16 19 16 10
23 23 23 22 22 23 24 24 24 24 25 27 29 32 35 36 35 34 33 32 32 32 33 34 34 35 35 35 34 31 30 29 24 20 18 18 17 16 16 15 11 16 12 7
22 22 21 21 21 21 21 21 23 25 26 29 32 33 33 31 29 29 30 30 30 32 34 34 34 34 35 35 34 30 28 26 21 17 17 17 16 15 14 14 11 16 8 4
20 19 19 20 20 19 20 22 23 25 28 29 30 29 28 27 28 28 29 31 32 32 33 34 35 35 35 34 33 29 26 23 19 16 15 14 15 14 12 11 10 12 5 1
16 16 18 18 17 19 21 24 25 26 26 27 26 25 25 26 26 27 28 29 31 33 34 34 35 35 34 33 32 30 25 18 14 13 13 14 14 12 11 8 10 9 3 5
14 17 16 16 19 21 23 25 26 25 24 24 24 25 26 27 26 27 27 28 29 31 32 32 34 33 31 32 31 29 23 15 11 10 11 11 13 11 11 8 9 6 4 8
14 15 16 19 20 22 23 24 23 23 22 23 23 25 26 26 26 27 28 29 30 30 29 30 30 30 30 30 28 24 17 12 10 10 11 11 10 11 9 8 7 4 7 10
13 15 17 19 21 22 21 21 21 21 21 22 23 24 25 25 24 25 27 29 30 31 31 32 30 29 29 28 25 19 14 11 9 9 10 11 9 10 8 7 4 5 10 12
15 17 19 21 20 19 18 18 19 20 21 22 22 22 22 22 23 25 25 26 26 26 28 28 28 28 29 29 24 18 13 10 10 10 10 9 9 8 7 4 3 7 11 13
17 19 20 19 18 17 16 16 17 19 20 21 21 21 21 21 21 22 25 26 26 26 26 26 26 27 29 28 23 17 13 11 11 10 9 9 8 7 5 2 4 8 12 14
18 18 17 17 16 15 16 16 17 18 19 19 18 19 20 21 21 21 19 21 23 24 25 25 24 25 27 27 21 17 14 13 12 11 9 9 8 7 4 2 5 9 12 14
17 16 15 15 15 15 16 16 16 17 17 17 16 16 16 17 20 21 21 21 21 22 24 24 24 24 25 25 21 18 15 14 13 12 11 10 9 7 4 1 5 10 13 13
16 15 14 14 13 13 15 16 16 16 16 16 16 16 16 16 16 16 17 19 20 21 22 23 22 21 22 23 24 22 18 16 15 13 12 10 9 7 4 2 7 12 14 15
14 13 13 13 12 12 13 14 14 14 15 14 13 14 14 14 15 17 17 18 20 22 21 21 21 20 20 20 22 22 19 18 15 13 12 11 10 8 6 6 11 15 16 16
14 12 12 11 11 11 12 11 11 10 10 10 10 11 11 12 14 15 17 18 18 20 22 22 21 20 19 18 18 19 19 18 17 14 11 11 12 10 11 12 13 14 14 14
Wind_Direction
289 291 293 289 291 286 259 274 255 279 282 304 302 303 306 309 312 312 310 308 308 311 311 312 312 315 318 317 316 316 316 313 312 309 306 302 298 295 291 287 283 281 279 278
291 302 291 286 292 280 274 272 267 285 291 301 300 303 309 313 312 309 306 308 312 313 312 313 315 317 320 319 319 319 318 316 315 311 307 303 300 298 295 292 289 285 282 278
290 297 296 295 253 286 284 273 279 280 292 296 298 308 314 312 308 309 310 312 314 316 317 318 318 320 322 321 321 321 319 317 314 311 309 306 304 303 300 296 293 289 284 278
284 292 251 279 273 296 291 272 290 292 293 292 301 312 314 310 309 310 311 313 316 318 318 319 318 319 321 321 322 321 319 319 316 312 311 310 309 306 302 298 296 291 283 275
255 241 281 295 286 283 288 296 304 287 295 294 309 313 314 314 312 314 315 317 318 320 321 320 318 320 322 322 321 321 320 319 316 312 313 314 313 308 303 300 299 292 285 274
254 254 276 297 296 298 309 308 314 306 310 305 313 313 311 316 317 317 316 316 317 320 320 319 317 318 320 320 320 321 321 320 316 312 315 317 316 311 305 303 301 294 286 277
246 255 275 280 292 305 299 304 309 313 312 311 313 313 314 315 316 314 315 316 318 321 321 319 316 317 319 319 320 321 321 321 315 313 316 318 318 314 310 306 303 296 289 282
231 235 271 255 301 294 296 298 305 307 309 310 312 313 313 313 313 313 313 315 316 318 319 316 314 314 317 319 320 321 321 321 314 313 316 317 319 319 316 310 306 300 294 287
254 273 283 295 302 298 297 299 302 305 307 309 311 312 312 313 313 314 316 317 318 319 319 319 316 315 317 319 320 321 321 321 313 310 314 316 319 321 320 311 306 305 302 296
277 286 293 297 297 296 295 296 300 303 305 308 309 311 312 313 315 315 316 317 318 319 319 318 318 316 316 319 320 321 321 321 312 308 310 311 315 318 319 314 308 312 309 306
286 296 298 298 295 292 293 297 300 302 304 307 310 312 314 314 314 315 317 319 320 319 319 322 321 319 318 320 322 321 320 320 312 306 308 309 312 317 316 315 315 322 324 309
292 297 295 294 292 291 295 298 302 305 307 310 312 314 314 314 316 318 319 320 321 322 321 323 322 321 322 323 323 322 320 318 312 305 307 309 311 312 314 312 306 320 322 306
289 292 291 291 293 295 298 302 306 308 310 313 313 314 315 317 319 320 320 322 324 325 324 325 325 324 324 324 325 323 319 319 312 306 306 311 312 314 315 301 297 323 321 304
287 287 289 292 295 298 303 307 311 312 313 313 316 316 318 320 322 321 322 325 327 326 326 327 326 325 325 325 324 323 321 318 311 307 306 312 314 317 317 323 298 327 317 309
290 292 292 295 301 305 309 312 312 313 315 316 317 319 320 323 324 323 324 326 328 327 328 327 327 326 326 325 325 324 321 316 308 302 303 310 315 317 317 323 317 328 321 325
293 294 299 304 307 309 312 312 311 315 316 318 320 321 323 326 327 327 326 327 328 327 328 329 328 328 328 326 325 326 325 319 308 303 303 308 313 316 314 318 314 324 309 64
294 297 302 303 304 309 311 311 312 315 319 321 322 325 326 328 328 326 326 327 329 328 331 332 330 331 329 327 329 329 327 320 304 299 304 312 316 315 317 309 313 316 253 173
294 298 299 301 305 309 311 312 314 320 322 324 324 324 325 327 328 328 329 330 331 331 333 333 333 331 332 331 331 329 328 322 310 303 305 312 314 312 315 300 307 299 204 187
291 293 297 302 306 310 312 311 314 319 322 323 323 324 325 328 331 331 332 333 334 333 335 335 336 336 337 335 332 330 329 324 319 315 317 321 315 317 308 301 295 256 190 189
290 295 299 304 309 310 311 312 316 320 322 323 325 327 329 330 331 332 335 336 338 338 339 339 340 342 340 343 343 339 336 330 328 327 325 325 319 316 307 299 271 203 188 186
296 301 305 306 308 310 311 314 316 320 322 325 327 328 330 333 335 335 336 337 340 339 341 342 346 345 350 351 352 352 348 343 338 334 330 327 325 321 315 291 225 192 187 184
298 300 301 305 307 308 309 314 317 322 324 327 329 332 333 334 336 336 336 339 342 344 346 349 350 354 356 356 356 356 357 356 353 343 337 335 336 335 318 267 202 188 184 181
295 297 302 303 303 307 312 317 322 324 325 327 330 331 330 331 335 339 341 340 343 348 352 354 355 359 1 2 1 5 6 8 5 358 355 353 356 353 331 242 190 179 178 174
298 300 301 301 303 310 316 321 323 326 327 328 328 330 334 337 339 341 344 348 351 354 357 358 360 2 4 7 12 16 16 17 14 12 13 12 13 12 351 206 171 169 169 165
296 297 299 300 304 312 317 319 322 326 326 328 331 337 341 346 348 350 352 357 359 0 1 3 3 4 7 13 20 23 21 23 20 17 17 20 22 29 35 127 152 157 157 151
293 295 296 298 307 314 316 318 323 324 325 332 340 347 352 357 2 4 5 6 9 9 7 6 6 9 11 15 22 25 29 32 30 27 31 40 43 53 76 119 142 147 145 145
290 292 291 298 309 312 311 314 320 326 334 346 354 356 1 4 7 13 14 13 14 15 16 15 12 12 15 19 21 26 28 35 36 35 38 57 67 80 98 116 132 142 143 145